GRBBETA

Last updated on Wed Aug 19 2026 00:03:15 GMT+0000 (Coordinated Universal Time)

1 60237U 24128C 26230.33289895 .00003422 00000+0 23905-3 0 9997 2 60237 61.9916 358.1623 0032007 148.3125 211.9903 15.07016164115638
UTC large
Height (km)
Speed (km/s)
/
Latitude / Longitude
Inclination (degrees)
Orbital Period (minutes)
Azimuth
Elevation
Range (km)
Doppler Factor

Next 0 passes for location: London (51.5072 / 0.1276)

No passes found over London.
GRBBETA